Wind_Speed
2 2 2 3 5 15 15 13 13 13 11 10 8 7 6 6 7 5 4 4 2 6 5 6 9 10 8 6 7 5 6 5 3 4 5 6 9 5 7 6 5 4 5 11 11
4 3 3 4 6 8 9 15 20 18 17 16 13 12 11 10 10 8 9 6 5 5 7 9 12 11 6 5 6 2 2 5 8 6 1 2 3 4 3 4 6 9 10 14 16
7 7 5 3 2 3 5 7 10 16 21 24 19 18 16 15 14 13 11 10 9 8 9 10 8 11 10 10 12 8 9 6 5 5 4 3 2 1 3 7 8 8 8 11 15
5 6 7 4 4 4 4 7 8 10 13 20 25 23 19 18 16 13 12 11 11 11 12 10 10 10 8 12 11 5 8 7 8 8 6 5 6 1 3 4 2 1 4 10 16
5 6 8 6 4 4 6 7 9 9 9 11 16 20 20 17 14 10 9 11 13 14 14 15 13 8 9 10 10 7 12 7 8 6 7 10 8 2 2 1 3 5 7 13 18
5 6 7 9 5 4 4 6 7 7 6 5 9 12 12 9 8 9 7 10 15 17 16 17 14 9 9 10 12 10 12 9 7 8 10 9 8 7 7 8 8 9 12 14 15
4 6 6 7 9 6 6 5 4 5 5 7 8 9 10 8 9 10 9 10 13 17 19 20 16 13 12 12 11 11 10 10 11 13 16 15 12 11 12 11 10 13 18 18 21
4 5 6 7 9 9 6 6 3 3 2 6 10 11 10 13 12 12 11 13 15 20 21 21 20 16 17 16 15 14 12 11 15 16 13 13 12 14 14 16 16 19 20 21 22
6 6 6 7 8 11 7 7 3 3 1 2 1 7 11 11 8 10 11 13 19 23 24 22 21 17 18 17 19 16 16 15 15 19 16 16 13 14 18 19 20 21 23 24 24
9 9 8 7 8 10 10 6 5 3 2 1 4 4 3 7 11 9 7 9 11 14 18 18 18 19 16 15 14 16 18 18 18 22 23 21 19 19 20 21 23 25 24 26 32
13 12 10 8 7 9 11 6 5 2 1 1 2 4 6 6 6 7 7 8 10 13 19 20 20 18 17 17 17 20 22 23 26 28 29 25 25 23 25 25 28 27 29 33 35
12 11 10 9 8 7 9 5 4 1 0 1 3 3 4 7 6 3 6 9 11 14 20 22 21 19 17 18 19 21 22 22 24 27 29 34 26 29 30 29 27 29 30 31 31
15 13 11 9 7 5 7 4 2 2 1 3 5 4 3 4 5 3 2 8 12 15 17 19 19 18 17 22 19 21 22 18 13 17 18 24 30 29 26 25 27 24 23 29 26
17 15 13 11 7 5 5 4 2 0 2 2 2 4 5 6 6 2 3 7 10 11 13 8 12 15 19 21 17 15 17 22 16 18 18 19 24 18 22 27 28 27 26 24 27
14 14 14 13 10 7 6 6 5 6 3 4 3 3 7 9 7 4 3 2 8 10 8 8 12 16 20 18 18 22 22 20 24 23 26 25 30 24 26 27 26 21 23 24 29
16 14 12 13 13 11 9 9 9 11 7 7 4 4 3 2 6 1 6 4 4 8 7 9 15 18 17 18 17 19 23 24 27 27 30 28 30 28 30 31 31 23 19 28 24
23 18 14 13 14 13 11 12 13 13 11 11 10 8 6 5 5 5 7 8 11 12 11 12 14 18 19 19 20 23 23 28 32 34 35 31 31 25 28 26 29 25 16 22 20
28 24 19 17 16 16 15 16 17 15 15 13 10 9 9 7 7 7 7 9 10 12 14 12 10 15 19 22 23 26 26 27 35 34 31 30 30 27 26 24 25 18 18 23 23
27 28 26 22 20 19 18 18 22 20 18 17 14 11 10 11 12 11 11 14 16 18 21 21 19 19 22 23 28 25 23 30 32 33 34 30 30 26 21 23 25 20 23 24 21
23 26 26 26 24 22 20 22 25 21 21 19 17 15 14 17 18 15 15 17 19 21 22 23 26 24 28 31 30 31 30 29 32 37 33 35 26 18 18 24 18 14 13 15 17
23 24 25 26 26 25 23 25 28 22 24 21 21 18 18 18 17 18 18 17 18 20 22 24 27 25 25 26 25 29 28 29 30 30 33 27 11 13 15 13 9 14 18 16 17
24 25 24 26 26 26 25 25 30 26 25 22 20 18 19 17 17 18 17 17 20 24 28 31 34 32 31 29 29 29 27 29 31 24 27 26 9 17 13 12 13 14 14 15 16
21 25 25 24 24 23 23 24 29 25 24 20 19 17 17 16 14 15 16 18 22 25 27 31 31 32 30 27 29 29 28 28 30 26 21 27 23 18 10 13 16 15 15 17 19
20 20 22 23 22 22 23 25 26 24 23 21 19 18 17 16 15 19 19 21 24 28 30 33 33 31 31 29 30 28 28 31 30 27 22 22 17 16 12 14 16 15 18 20 22
23 19 20 22 21 22 24 22 25 24 21 20 20 18 17 16 19 21 21 23 23 27 29 31 31 29 24 26 22 23 27 28 27 19 20 18 18 16 16 16 24 23 22 23 24
24 23 20 19 20 22 21 22 23 20 17 17 19 17 17 17 18 20 23 23 22 23 27 28 29 25 19 22 30 27 23 22 18 17 19 16 16 22 23 24 30 30 29 27 28
25 24 23 21 21 22 20 20 18 14 14 16 16 16 16 17 19 20 22 22 22 24 29 29 27 25 22 22 22 17 13 13 19 20 20 21 22 21 25 26 28 33 33 28 30
Wind_Direction
9 337 296 264 217 217 211 213 214 209 210 219 230 244 266 281 302 323 327 332 249 196 193 202 172 176 173 150 124 132 172 191 215 314 359 42 68 71 77 53 13 349 333 348 345
22 1 330 280 260 248 234 236 229 227 231 235 245 256 265 275 284 300 299 300 290 217 187 188 182 192 204 193 204 182 181 296 230 266 49 36 34 43 11 357 345 338 337 347 336
29 20 353 338 274 254 259 258 251 244 245 244 245 253 257 270 279 280 277 275 277 244 209 206 160 200 220 222 227 247 294 292 164 226 200 209 213 314 344 350 352 353 345 345 343
27 23 12 338 307 284 278 278 269 257 267 246 239 245 258 265 267 261 261 260 254 239 221 215 185 195 220 236 256 298 297 269 231 252 266 271 270 285 360 47 17 349 280 357 353
20 21 17 11 350 297 268 282 279 278 281 239 226 233 243 248 247 245 250 250 239 232 230 219 217 211 232 249 273 290 288 274 280 269 287 285 292 261 310 312 344 354 327 348 352
17 19 16 13 0 351 318 282 284 283 266 224 220 221 225 217 216 214 232 236 238 232 231 232 229 245 257 273 291 298 269 256 243 271 270 272 281 294 322 323 353 331 327 345 342
4 11 10 5 2 342 339 324 271 298 253 216 211 214 217 200 208 212 235 242 249 246 230 239 241 241 259 278 283 284 227 232 261 272 272 272 274 292 303 295 306 308 331 345 340
320 349 357 355 356 351 339 346 282 297 349 222 219 219 213 209 205 212 222 220 221 242 241 246 251 249 259 256 263 278 236 249 264 271 278 282 279 290 292 298 307 323 334 335 333
286 304 327 341 347 351 348 359 347 271 314 67 159 208 212 215 208 212 214 213 213 227 237 240 249 257 258 263 272 251 255 254 267 274 272 270 276 291 292 304 313 321 317 326 328
272 287 302 320 333 344 357 7 6 329 279 162 148 167 178 180 211 219 224 221 221 235 239 241 248 256 250 258 256 251 250 251 264 279 281 271 269 277 292 296 301 310 316 322 324
263 273 285 297 314 341 360 358 360 353 323 342 178 174 188 199 204 236 251 259 251 229 229 233 243 258 271 266 265 270 272 271 277 279 278 263 267 273 285 290 301 310 318 323 324
261 266 274 284 300 337 348 356 353 335 71 110 117 145 192 201 198 211 262 268 256 237 240 247 250 257 263 269 277 286 283 284 267 275 279 265 262 270 289 299 313 320 317 315 321
255 258 265 273 286 317 331 335 333 340 50 109 101 107 97 134 152 156 270 276 271 262 243 249 256 259 271 261 282 289 299 288 290 277 285 279 269 276 291 305 313 316 317 320 311
252 252 256 262 264 271 301 275 253 150 172 82 97 116 100 111 85 104 263 252 259 259 256 259 264 263 263 271 274 276 272 268 293 291 291 286 290 293 300 309 310 304 308 310 327
247 250 253 256 250 244 256 240 221 199 169 188 125 117 114 161 146 110 8 294 245 261 289 285 282 272 268 269 267 277 281 289 284 289 288 296 297 296 305 312 317 305 304 307 309
238 239 247 249 245 237 239 224 222 215 202 197 217 185 207 246 199 49 351 294 274 264 258 238 252 272 281 266 256 274 284 282 281 292 289 300 289 290 305 310 312 300 310 311 295
235 232 234 241 238 232 232 231 224 224 224 233 244 250 240 266 269 296 324 338 317 316 294 281 252 256 266 275 286 288 293 295 286 289 290 288 291 300 307 302 300 299 294 311 290
234 232 231 234 232 227 224 235 238 229 226 238 241 265 263 257 252 279 306 320 332 318 316 303 296 278 273 281 291 293 291 296 295 296 291 292 297 302 302 299 295 281 285 285 289
231 231 231 231 231 225 222 231 243 244 242 245 253 271 292 300 298 298 297 298 300 307 307 306 298 294 291 297 302 301 288 290 295 292 292 297 301 297 295 289 291 302 290 274 277
234 228 223 226 228 222 219 228 241 244 251 258 268 282 297 303 296 293 296 299 299 295 297 299 295 296 289 286 289 293 295 291 292 293 297 301 303 289 286 287 269 291 301 285 286
234 225 221 223 224 220 215 222 234 240 249 255 266 280 286 298 296 296 297 296 295 299 301 301 298 298 289 288 285 285 283 289 299 293 295 302 327 300 302 311 264 269 277 289 291
230 221 219 220 221 221 216 221 237 244 253 259 268 274 283 292 290 289 301 309 311 311 310 307 303 304 300 294 288 282 281 286 285 289 286 284 305 301 300 279 279 273 279 288 289
220 217 215 219 220 217 218 227 239 249 256 264 267 271 277 293 294 296 303 308 308 308 308 305 305 303 299 297 289 281 278 277 277 284 277 280 309 260 281 287 285 282 280 282 288
215 214 214 220 216 213 218 228 241 249 257 264 276 288 299 307 298 298 308 315 317 317 316 316 314 306 302 301 297 290 279 275 279 282 271 281 280 269 264 275 288 296 296 292 285
213 214 210 213 210 212 218 228 242 248 259 272 284 290 297 301 298 304 313 316 316 320 321 317 319 316 301 295 297 296 287 278 281 269 273 287 265 259 263 269 280 290 293 290 289
211 215 213 215 210 216 222 230 244 253 263 276 283 287 289 292 296 309 309 312 311 321 322 328 334 334 318 283 290 297 302 278 261 261 267 274 264 261 259 273 277 277 284 291 295
213 214 217 214 218 223 226 234 243 257 263 265 277 278 288 287 299 304 308 310 307 317 321 321 329 327 330 326 314 305 294 286 265 268 260 262 267 279 285 289 284 278 278 292 295
Height
5882 5882 5881 5881 5882 5882 5883 5884 5885 5886 5887 5888 5888 5889 5889 5889 5889 5890 5889 5890 5890 5889 5890 5891 5894 5896 5897 5899 5902 5903 5903 5902 5903 5904 5904 5904 5901 5898 5896 5896 5897 5897 5897 5898 5898
5883 5882 5881 5881 5880 5881 5882 5883 5883 5884 5885 5885 5886 5887 5888 5888 5889 5889 5890 5889 5889 5889 5889 5891 5894 5897 5897 5898 5900 5901 5902 5902 5902 5903 5903 5902 5901 5898 5897 5895 5895 5896 5897 5896 5895
5883 5882 5881 5880 5880 5880 5880 5881 5881 5882 5882 5883 5884 5885 5886 5887 5888 5888 5887 5888 5888 5888 5888 5890 5896 5898 5898 5898 5898 5900 5900 5901 5900 5900 5900 5900 5899 5897 5898 5897 5897 5897 5897 5895 5895
5884 5883 5882 5881 5880 5880 5880 5880 5880 5880 5879 5878 5880 5882 5884 5885 5887 5886 5886 5887 5887 5887 5888 5889 5894 5896 5896 5896 5897 5901 5900 5899 5898 5898 5898 5897 5895 5896 5896 5896 5895 5894 5893 5893 5891
5884 5884 5883 5881 5880 5880 5879 5879 5878 5877 5876 5875 5876 5879 5882 5883 5884 5885 5885 5885 5885 5886 5887 5889 5891 5894 5895 5896 5897 5900 5899 5898 5897 5895 5894 5894 5893 5893 5894 5894 5893 5891 5889 5890 5887
5884 5884 5883 5882 5880 5879 5878 5877 5877 5875 5874 5874 5876 5877 5880 5882 5882 5883 5883 5883 5884 5885 5887 5888 5890 5893 5893 5895 5896 5897 5897 5897 5896 5894 5893 5892 5892 5891 5890 5889 5889 5888 5887 5887 5885
5884 5884 5883 5882 5881 5879 5878 5876 5875 5875 5873 5874 5876 5877 5879 5881 5880 5881 5882 5883 5884 5884 5887 5888 5890 5891 5893 5894 5894 5894 5894 5894 5894 5893 5892 5891 5891 5890 5889 5886 5886 5885 5884 5882 5880
5883 5883 5883 5882 5880 5879 5877 5876 5875 5874 5873 5873 5875 5876 5878 5878 5879 5880 5880 5881 5883 5883 5885 5887 5888 5891 5891 5890 5893 5894 5894 5893 5892 5890 5889 5889 5889 5887 5885 5885 5884 5882 5880 5878 5876
5882 5882 5882 5881 5880 5878 5877 5876 5875 5874 5874 5874 5875 5875 5876 5878 5879 5879 5880 5880 5881 5881 5882 5885 5886 5889 5890 5891 5892 5892 5892 5892 5891 5888 5889 5887 5886 5885 5883 5882 5881 5879 5876 5874 5871
5881 5881 5881 5880 5880 5878 5877 5876 5875 5875 5875 5874 5874 5876 5877 5878 5878 5878 5879 5880 5881 5883 5884 5885 5885 5886 5886 5888 5889 5889 5890 5888 5887 5885 5884 5884 5883 5881 5880 5878 5876 5875 5872 5870 5866
5879 5879 5880 5879 5879 5879 5877 5877 5877 5876 5875 5876 5875 5875 5875 5877 5877 5879 5879 5880 5881 5882 5882 5883 5884 5884 5885 5886 5887 5887 5886 5885 5884 5881 5878 5880 5879 5878 5875 5874 5873 5870 5868 5864 5861
5877 5877 5878 5878 5878 5879 5877 5876 5875 5876 5875 5875 5875 5874 5874 5875 5877 5878 5879 5881 5880 5880 5880 5881 5881 5883 5883 5882 5882 5881 5880 5880 5878 5876 5875 5874 5874 5873 5871 5870 5869 5867 5865 5860 5856
5874 5875 5876 5876 5877 5878 5876 5875 5875 5874 5875 5876 5875 5875 5875 5876 5876 5877 5878 5879 5880 5879 5878 5878 5880 5880 5880 5880 5880 5878 5877 5877 5874 5871 5870 5868 5869 5870 5869 5866 5865 5864 5862 5858 5854
5870 5872 5873 5874 5877 5876 5875 5874 5874 5874 5875 5875 5875 5875 5874 5874 5876 5877 5877 5879 5878 5878 5878 5878 5877 5878 5877 5877 5876 5875 5873 5872 5871 5868 5866 5866 5864 5865 5863 5861 5860 5859 5856 5853 5850
5867 5869 5871 5872 5873 5874 5874 5873 5873 5874 5875 5875 5874 5874 5874 5876 5877 5878 5878 5877 5877 5876 5877 5877 5875 5873 5872 5873 5872 5872 5870 5868 5866 5864 5861 5861 5858 5858 5857 5854 5852 5851 5849 5846 5844
5864 5866 5868 5869 5870 5871 5871 5871 5872 5874 5873 5873 5874 5874 5875 5874 5875 5875 5876 5875 5875 5874 5873 5873 5871 5870 5870 5869 5867 5866 5865 5863 5860 5858 5856 5857 5854 5853 5849 5848 5846 5844 5843 5840 5837
5859 5862 5865 5866 5867 5868 5869 5870 5871 5871 5872 5873 5872 5872 5872 5872 5873 5873 5873 5873 5872 5872 5871 5871 5869 5867 5866 5866 5864 5862 5859 5856 5853 5852 5850 5848 5845 5847 5842 5841 5839 5839 5838 5835 5832
5853 5857 5860 5861 5863 5864 5866 5867 5867 5869 5869 5870 5871 5871 5870 5871 5871 5871 5871 5870 5870 5869 5867 5867 5866 5864 5863 5861 5859 5856 5854 5852 5844 5843 5842 5841 5838 5838 5837 5835 5834 5833 5832 5830 5829
5846 5850 5854 5857 5858 5860 5862 5863 5862 5864 5866 5867 5868 5868 5869 5868 5868 5868 5868 5867 5866 5865 5864 5861 5861 5859 5856 5854 5852 5850 5848 5846 5840 5837 5834 5835 5834 5833 5830 5829 5829 5826 5821 5823 5824
5840 5843 5848 5851 5854 5856 5858 5859 5858 5861 5862 5862 5863 5865 5865 5865 5865 5865 5865 5864 5863 5861 5860 5857 5854 5854 5850 5848 5847 5842 5840 5838 5836 5829 5827 5827 5827 5825 5825 5823 5822 5821 5820 5819 5819
5834 5838 5842 5846 5849 5852 5854 5854 5853 5857 5858 5861 5861 5862 5862 5861 5862 5861 5861 5861 5858 5855 5853 5850 5848 5847 5843 5840 5837 5835 5833 5831 5828 5826 5822 5822 5825 5821 5821 5818 5817 5817 5817 5816 5814
5828 5832 5837 5840 5844 5847 5850 5851 5851 5853 5855 5858 5859 5860 5860 5859 5859 5858 5857 5855 5853 5850 5847 5843 5838 5836 5835 5833 5830 5827 5825 5823 5820 5820 5818 5817 5822 5819 5816 5815 5814 5812 5811 5810 5809
5823 5827 5832 5836 5839 5843 5846 5848 5846 5850 5852 5854 5856 5856 5856 5856 5855 5853 5853 5851 5848 5846 5842 5838 5834 5829 5826 5825 5822 5819 5818 5815 5813 5812 5813 5812 5815 5812 5812 5811 5810 5808 5806 5806 5804
5821 5824 5828 5832 5835 5839 5840 5842 5844 5847 5849 5851 5852 5853 5853 5852 5851 5849 5848 5846 5842 5839 5834 5829 5826 5821 5818 5814 5811 5810 5808 5805 5803 5804 5806 5808 5808 5807 5807 5807 5804 5803 5802 5800 5798
5817 5821 5824 5828 5831 5833 5835 5839 5839 5843 5847 5848 5849 5849 5849 5848 5846 5845 5844 5842 5838 5833 5829 5824 5819 5813 5809 5806 5803 5801 5799 5798 5797 5799 5799 5801 5800 5801 5801 5802 5800 5799 5798 5795 5792
5814 5817 5821 5824 5827 5829 5832 5835 5837 5842 5844 5845 5846 5845 5844 5843 5842 5840 5839 5836 5833 5829 5825 5819 5813 5808 5804 5800 5798 5797 5793 5791 5793 5795 5795 5795 5797 5795 5795 5795 5795 5793 5791 5789 5786
5809 5813 5816 5821 5823 5826 5829 5831 5834 5837 5839 5839 5840 5839 5839 5839 5837 5836 5834 5830 5828 5825 5819 5815 5810 5806 5802 5797 5793 5792 5790 5790 5789 5789 5790 5791 5791 5792 5789 5790 5788 5787 5784 5783 5780